Simultaneous Nadir Overpasses (SNOs) Predictions

Prediction of SNOs between NOAA-19 and NPP Satellite Orbit:

Table of predicted SNOs for the next 14.0 days since TLE Epoch: 9/5/2014
Index Date (NOAA-19) Time (NOAA-19) Lat,Lon (NOAA-19) SZA (NOAA-19 ) Date (NPP) Time (NPP) Lat,Lon (NPP) SZA (NPP ) Distance(km) Time Diff (sec)
1 09/14/2014 02:49:37 -81.00, -95.20 99.05 09/14/2014 02:50:44 -81.01, -95.33 99.06 2.34 67
2 09/14/2014 03:40:42 81.00, 72.09 80.96 09/14/2014 03:41:29 81.00, 72.10 80.94 0.15 47
3 09/14/2014 04:31:39 -80.99,-120.17 99.09 09/14/2014 04:32:13 -80.99,-120.33 99.09 2.80 34
4 09/14/2014 05:22:44 80.99, 47.12 80.92 09/14/2014 05:22:58 80.99, 47.10 80.91 0.45 14
5 09/14/2014 06:13:42 -80.99,-145.52 99.09 09/14/2014 06:13:43 -80.99,-145.70 99.07 3.23 1
6 09/14/2014
